GW2225 Weather Reports


time (UTC)temp
F
wind
direction
speed
knots
gust
knots
rain 1hr
in
rain 24hr
in
rain mn
in
humidity
%
barometer
mb
20260906090007 69 262 0.0 0.0 0.00 0.59 0.00 98 1011.1
20260906084511 69 262 0.0 0.0 0.00 0.59 0.00 97 1010.9
20260906083055 69 262 0.0 0.0 0.00 0.59 0.00 97 1011.2
20260906081528 69 262 0.0 0.0 0.00 0.59 0.00 97 1011.3
20260906080026 69 262 0.0 0.0 0.00 0.59 0.00 97 1011.3
20260906074526 69 262 0.0 0.0 0.00 0.59 0.00 97 1011.4
20260906073027 69 262 0.0 0.0 0.00 0.59 0.00 97 1011.3
20260906071521 69 262 0.0 0.0 0.00 0.59 0.00 97 1011.3
20260906070020 70 262 0.0 0.0 0.00 0.59 0.00 97 1011.4
20260906064527 70 262 0.0 0.0 0.00 0.59 0.00 97 1011.4
20260906063017 70 262 0.0 0.0 0.00 0.59 0.00 97 1011.6
20260906061515 70 262 0.0 0.0 0.00 0.59 0.00 96 1011.8
20260906060021 70 262 0.0 0.0 0.00 0.59 0.00 96 1011.8
20260906054511 70 262 0.0 0.0 0.00 0.59 0.00 96 1012.0
20260906053019 71 262 0.0 0.0 0.00 0.59 0.00 96 1012.1
20260906051510 71 262 0.0 0.0 0.00 0.59 0.00 95 1012.0
20260906050008 71 262 0.0 0.0 0.00 0.59 0.00 95 1012.4
20260906044506 71 262 0.0 0.0 0.00 0.59 0.00 95 1012.3
20260906043056 71 257 0.0 0.0 0.00 0.59 0.00 95 1011.9
20260906041515 72 257 0.0 0.0 0.00 0.59 0.00 95 1011.9
20260906040012 72 257 0.0 0.0 0.00 0.59 0.00 95 1011.9
20260906034516 72 257 0.0 0.0 0.00 0.59 0.59 95 1012.0
20260906033016 72 257 0.0 0.0 0.00 0.59 0.59 95 1012.3
20260906031510 72 257 0.0 0.0 0.00 0.59 0.59 94 1012.4
20260906030009 72 257 0.0 0.0 0.00 0.59 0.59 94 1012.7
20260906024509 72 257 0.0 0.0 0.00 0.59 0.59 94 1012.3
20260906023009 72 257 0.0 0.0 0.00 0.59 0.59 94 1012.4
20260906021513 72 257 0.0 0.0 0.00 0.59 0.59 94 1012.4
20260906020009 72 257 0.0 0.0 0.00 0.59 0.59 93 1012.3
20260906014517 73 257 0.0 0.0 0.00 0.59 0.59 93 1012.0
20260906013006 73 257 0.0 0.0 0.00 0.59 0.59 93 1012.0
20260906011505 73 257 0.0 0.0 0.00 0.59 0.59 92 1011.8
20260906010004 74 257 0.0 0.0 0.00 0.59 0.59 91 1011.8
20260906004504 74 257 0.0 0.0 0.00 0.59 0.59 90 1011.5
20260906003055 75 257 0.0 0.0 0.00 0.59 0.59 90 1011.3
20260906001512 75 257 0.0 0.0 0.00 0.59 0.59 89 1011.2
20260906000012 76 257 0.0 0.0 0.00 0.59 0.59 87 1011.2
20260905234512 77 257 0.0 0.0 0.00 0.59 0.59 86 1011.2
20260905233010 78 257 0.0 0.0 0.00 0.59 0.59 86 1011.1
20260905231510 79 257 0.0 0.0 0.00 0.59 0.59 85 1011.0
20260905230009 80 257 0.0 0.0 0.00 0.59 0.59 84 1011.2
20260905224516 81 257 0.0 0.0 0.00 0.59 0.59 82 1011.3
20260905223008 81 257 0.0 0.0 0.00 0.59 0.59 80 1011.4
20260905221517 82 257 0.0 0.0 0.00 0.59 0.59 79 1011.6
20260905220007 82 257 0.0 0.0 0.00 0.59 0.59 79 1011.4
20260905214506 82 255 0.0 2.6 0.00 0.59 0.59 78 1011.4
20260905213005 83 165 0.0 0.0 0.00 0.59 0.59 78 1011.4
20260905211504 83 183 0.0 1.7 0.00 0.59 0.59 77 1011.2
20260905210003 84 168 0.0 1.7 0.00 0.59 0.59 75 1011.4
20260905204502 84 90 0.0 5.2 0.00 0.59 0.59 74 1011.3
20260905203002 85 195 0.0 2.6 0.00 0.59 0.59 76 1011.5
20260905201609 83 150 0.0 1.7 0.00 0.59 0.59 77 1011.5
20260905194557 83 203 0.0 2.6 0.00 0.59 0.59 81 1011.8
20260905193055 82 174 0.0 3.5 0.00 0.59 0.59 78 1012.2
20260905191557 81 120 0.0 0.9 0.00 0.59 0.59 81 1012.3
20260905190105 80 261 0.9 2.6 0.00 0.59 0.59 82 1012.6
20260905184606 79 104 0.0 2.6 0.00 0.59 0.59 84 1013.0
20260905183049 79 155 0.0 2.6 0.00 0.59 0.59 84 1013.2
20260905181550 78 200 0.0 1.7 0.00 0.59 0.59 87 1013.5
20260905180048 75 210 0.0 0.9 0.00 0.59 0.59 90 1013.7
20260905174555 74 174 0.9 2.6 0.00 0.59 0.59 94 1014.3
20260905173046 72 138 0.9 2.6 0.00 0.59 0.59 97 1014.8
20260905171547 71 146 0.0 0.0 0.00 0.59 0.59 96 1014.8
20260905170045 71 146 0.0 0.0 0.28 0.59 0.59 96 1014.7
20260905164549 71 146 0.0 0.0 0.59 0.59 0.59 95 1014.3
20260905163044 71 148 0.0 0.9 0.59 0.59 0.59 94 1014.6
20260905161543 72 146 0.0 1.7 0.59 0.59 0.59 92 1014.7
20260905160043 77 78 0.0 7.0 0.30 0.30 0.30 85 1016.0
20260905154539 84 11 0.9 1.7 0.00 0.00 0.00 79 1014.6
20260905153039 86 3 0.0 0.9 0.00 0.00 0.00 76 1014.1
20260905151537 85 249 0.0 0.9 0.00 0.00 0.00 79 1013.9
20260905150035 84 258 0.0 0.9 0.00 0.00 0.00 78 1013.7
20260905144535 83 231 0.0 0.9 0.00 0.00 0.00 81 1013.7
20260905143031 81 257 0.0 0.9 0.00 0.00 0.00 83 1013.6
20260905141522 79 167 0.0 0.0 0.00 0.00 0.00 85 1013.8
20260905140018 77 186 0.0 0.0 0.00 0.00 0.00 89 1014.0
20260905134518 76 189 0.0 0.0 0.00 0.00 0.00 92 1014.1
20260905133016 74 178 0.0 0.0 0.00 0.00 0.00 94 1014.0
20260905131516 73 178 0.0 0.0 0.00 0.00 0.00 96 1014.1
20260905130006 72 43 0.0 0.0 0.00 0.00 0.00 97 1014.3
20260905124505 71 43 0.0 0.0 0.00 0.00 0.00 98 1014.3
20260905123108 70 43 0.0 0.0 0.00 0.00 0.00 98 1014.3
20260905121527 70 43 0.0 0.0 0.00 0.00 0.00 98 1014.2
20260905120021 69 43 0.0 0.0 0.00 0.00 0.00 98 1014.0
20260905114534 69 43 0.0 0.0 0.00 0.00 0.00 97 1014.0
20260905113016 69 43 0.0 0.0 0.00 0.00 0.00 97 1013.8
20260905111517 69 43 0.0 0.0 0.00 0.00 0.00 97 1013.7
20260905110015 69 43 0.0 0.0 0.00 0.00 0.00 97 1013.6
20260905104514 69 43 0.0 0.0 0.00 0.00 0.00 97 1013.2
20260905103024 69 43 0.0 0.0 0.00 0.00 0.00 97 1013.4
20260905101523 69 43 0.0 0.0 0.00 0.00 0.00 97 1013.1
20260905100013 69 43 0.0 0.0 0.00 0.00 0.00 97 1013.2
20260905094510 69 43 0.0 0.0 0.00 0.00 0.00 97 1013.2
20260905093009 70 43 0.0 0.0 0.00 0.00 0.00 97 1013.1
20260905091508 70 43 0.0 0.0 0.00 0.00 0.00 97 1012.9